Satellite: NOAA-14 Catalog number: 23455 Epoch time: 08170.68029562 Element set: 0187 Inclination: 098.9465 deg RA of node: 242.9237 deg Eccentricity: 0.0010190 Arg of perigee: 137.3980 deg Mean anomaly: 222.7990 deg Mean motion: 14.13744677 rev/day Decay rate: 2.09e-06 rev/day^2 Epoch rev: 69456 Checksum: 332
Satellite: SICH-1 Catalog number: 23657 Epoch time: 08170.70122479 Element set: 0417 Inclination: 082.5273 deg RA of node: 094.6443 deg Eccentricity: 0.0025511 Arg of perigee: 112.8270 deg Mean anomaly: 247.5660 deg Mean motion: 14.81585875 rev/day Decay rate: 1.39e-06 rev/day^2 Epoch rev: 69044 Checksum: 304
Satellite: NOAA-15 Catalog number: 25338 Epoch time: 08171.18345980 Element set: 508 Inclination: 098.5531 deg RA of node: 162.9907 deg Eccentricity: 0.0011363 Arg of perigee: 040.7724 deg Mean anomaly: 319.4321 deg Mean motion: 14.24707783 rev/day Decay rate: -7.4e-07 rev/day^2 Epoch rev: 52508 Checksum: 307
Satellite: RESURS Catalog number: 25394 Epoch time: 08170.65457727 Element set: 0966 Inclination: 098.3885 deg RA of node: 214.5483 deg Eccentricity: 0.0001144 Arg of perigee: 152.8675 deg Mean anomaly: 207.2557 deg Mean motion: 14.24162261 rev/day Decay rate: 9.0e-08 rev/day^2 Epoch rev: 51665 Checksum: 315
Satellite: FENGYUN1 Catalog number: 25730 Epoch time: 08171.82944540 Element set: 464 Inclination: 098.7223 deg RA of node: 147.5243 deg Eccentricity: 0.0020294 Arg of perigee: 157.7482 deg Mean anomaly: 202.4571 deg Mean motion: 14.07693946 rev/day Decay rate: 4.74e-06 rev/day^2 Epoch rev: 46933 Checksum: 312
Satellite: OKEAN-0 Catalog number: 25860 Epoch time: 08170.54253957 Element set: 0397 Inclination: 097.7494 deg RA of node: 161.0296 deg Eccentricity: 0.0000632 Arg of perigee: 050.8597 deg Mean anomaly: 309.2667 deg Mean motion: 14.73525372 rev/day Decay rate: 1.1e-07 rev/day^2 Epoch rev: 47959 Checksum: 325
Satellite: NOAA-16 Catalog number: 26536 Epoch time: 08171.11975429 Element set: 979 Inclination: 099.1547 deg RA of node: 160.3374 deg Eccentricity: 0.0009830 Arg of perigee: 216.7565 deg Mean anomaly: 143.2959 deg Mean motion: 14.12484337 rev/day Decay rate: -1.20e-06 rev/day^2 Epoch rev: 39904 Checksum: 329
Satellite: NOAA-17 Catalog number: 27453 Epoch time: 08170.66849822 Element set: 0970 Inclination: 098.5356 deg RA of node: 235.2521 deg Eccentricity: 0.0012897 Arg of perigee: 103.6177 deg Mean anomaly: 256.6443 deg Mean motion: 14.23980993 rev/day Decay rate: -7.0e-07 rev/day^2 Epoch rev: 31101 Checksum: 317
Satellite: NOAA-18 Catalog number: 28654 Epoch time: 08170.68356369 Element set: 0472 Inclination: 098.8679 deg RA of node: 111.5951 deg Eccentricity: 0.0013712 Arg of perigee: 313.3625 deg Mean anomaly: 046.6407 deg Mean motion: 14.11171174 rev/day Decay rate: 2.30e-06 rev/day^2 Epoch rev: 15868 Checksum: 314
/EX SB KEPS @ AMSAT $ORB08171.M Orbital Elements 08171.MISC
HR AMSAT ORBITAL ELEMENTS FOR MANNED AND MISCELLANEOUS SATELLITES FROM WA5QGD FORT WORTH,TX June 19, 2008 Send Subscribe/unsubscribe to KEPS at http://www.amsat.org/mailman/listinfo/keps BID: ORB08171.M TO ALL RADIO AMATEURS BT
Satellite: HUBBLE Catalog number: 20580 Epoch time: 08171.73841392 Element set: 160 Inclination: 028.4690 deg RA of node: 306.5931 deg Eccentricity: 0.0003408 Arg of perigee: 054.0999 deg Mean anomaly: 305.9908 deg Mean motion: 15.00387443 rev/day Decay rate: 3.18e-06 rev/day^2 Epoch rev: 79536 Checksum: 303
Satellite: PO-34 Catalog number: 25520 Epoch time: 08170.38062753 Element set: 0025 Inclination: 028.4593 deg RA of node: 170.7911 deg Eccentricity: 0.0005254 Arg of perigee: 296.5203 deg Mean anomaly: 063.4852 deg Mean motion: 15.17201839 rev/day Decay rate: 3.85e-06 rev/day^2 Epoch rev: 53334 Checksum: 287
Satellite: ISS Catalog number: 25544 Epoch time: 08170.94347382 Element set: 0692 Inclination: 051.6427 deg RA of node: 007.3198 deg Eccentricity: 0.0005894 Arg of perigee: 350.2420 deg Mean anomaly: 096.0875 deg Mean motion: 15.77053772 rev/day Decay rate: 1.7507e-04 rev/day^2 Epoch rev: 54880 Checksum: 319
Satellite: CO-58 Catalog number: 28895 Epoch time: 08171.72530725 Element set: 49 Inclination: 098.0992 deg RA of node: 065.6678 deg Eccentricity: 0.0018482 Arg of perigee: 045.0989 deg Mean anomaly: 315.1728 deg Mean motion: 14.59676968 rev/day Decay rate: 9.5e-07 rev/day^2 Epoch rev: 14085 Checksum: 370
Satellite: NCUBE2 Catalog number: 28897 Epoch time: 08170.25018137 Element set: 0580 Inclination: 098.0981 deg RA of node: 064.1579 deg Eccentricity: 0.0018379 Arg of perigee: 049.2026 deg Mean anomaly: 311.0764 deg Mean motion: 14.59847182 rev/day Decay rate: 7.9e-07 rev/day^2 Epoch rev: 13292 Checksum: 324
Satellite: FCAL Catalog number: 29667 Epoch time: 08146.34060426 Element set: 979 Inclination: 051.6107 deg RA of node: 065.3702 deg Eccentricity: 0.0009039 Arg of perigee: 260.8350 deg Mean anomaly: 099.5042 deg Mean motion: 16.53464210 rev/day Decay rate: 1.1864717e-01 rev/day^2 Epoch rev: 8291 Checksum: 307
Satellite: FALCON Catalog number: 30776 Epoch time: 08170.96933700 Element set: 0336 Inclination: 035.4325 deg RA of node: 142.6844 deg Eccentricity: 0.0001414 Arg of perigee: 358.1828 deg Mean anomaly: 001.8891 deg Mean motion: 15.03005107 rev/day Decay rate: 2.19e-06 rev/day^2 Epoch rev: 07041 Checksum: 266
Satellite: MAST Catalog number: 31126 Epoch time: 08171.71953993 Element set: 355 Inclination: 098.0386 deg RA of node: 236.0521 deg Eccentricity: 0.0094125 Arg of perigee: 324.7707 deg Mean anomaly: 034.7285 deg Mean motion: 14.53428445 rev/day Decay rate: -6.6e-07 rev/day^2 Epoch rev: 6238 Checksum: 304
Satellite: CAPE1 Catalog number: 31130 Epoch time: 08170.15679680 Element set: 0339 Inclination: 098.0381 deg RA of node: 233.5589 deg Eccentricity: 0.0102422 Arg of perigee: 332.4923 deg Mean anomaly: 027.0850 deg Mean motion: 14.51968614 rev/day Decay rate: -8.2e-07 rev/day^2 Epoch rev: 06186 Checksum: 292
Satellite: CUTE1-7 Catalog number: 32785 Epoch time: 08170.33529666 Element set: 0080 Inclination: 097.9924 deg RA of node: 230.2531 deg Eccentricity: 0.0015655 Arg of perigee: 128.8795 deg Mean anomaly: 231.3815 deg Mean motion: 14.81367698 rev/day Decay rate: 2.38e-06 rev/day^2 Epoch rev: 00757 Checksum: 333
Satellite: COMPASS Catalog number: 32787 Epoch time: 08170.33359543 Element set: 0071 Inclination: 097.9885 deg RA of node: 230.2243 deg Eccentricity: 0.0016633 Arg of perigee: 130.7882 deg Mean anomaly: 229.4774 deg Mean motion: 14.81421798 rev/day Decay rate: 3.29e-06 rev/day^2 Epoch rev: 00757 Checksum: 318
Satellite: AAUSAT2 Catalog number: 32788 Epoch time: 08171.81573088 Element set: 72 Inclination: 097.9885 deg RA of node: 231.7096 deg Eccentricity: 0.0016772 Arg of perigee: 127.7503 deg Mean anomaly: 232.5207 deg Mean motion: 14.81532498 rev/day Decay rate: 4.22e-06 rev/day^2 Epoch rev: 779 Checksum: 324
Satellite: DO-64 Catalog number: 32789 Epoch time: 08170.94227896 Element set: 0081 Inclination: 097.9911 deg RA of node: 230.8503 deg Eccentricity: 0.0016683 Arg of perigee: 128.1667 deg Mean anomaly: 232.1048 deg Mean motion: 14.81410044 rev/day Decay rate: 5.89e-06 rev/day^2 Epoch rev: 00766 Checksum: 321
Satellite: SEEDS Catalog number: 32791 Epoch time: 08170.13573835 Element set: 0078 Inclination: 097.9930 deg RA of node: 230.0371 deg Eccentricity: 0.0016969 Arg of perigee: 129.0062 deg Mean anomaly: 231.2665 deg Mean motion: 14.81281556 rev/day Decay rate: 4.28e-06 rev/day^2 Epoch rev: 00751 Checksum: 294
Satellite: CANX-2 Catalog number: 32797 Epoch time: 08169.11117159 Element set: 0033 Inclination: 097.9923 deg RA of node: 229.0501 deg Eccentricity: 0.0018051 Arg of perigee: 136.6067 deg Mean anomaly: 223.6579 deg Mean motion: 14.81732267 rev/day Decay rate: 1.971e-05 rev/day^2 Epoch rev: 00607 Checksum: 303
Satellite: RS-30 Catalog number: 32953 Epoch time: 08171.82453915 Element set: 35 Inclination: 082.4998 deg RA of node: 121.9451 deg Eccentricity: 0.0017459 Arg of perigee: 249.7553 deg Mean anomaly: 110.1650 deg Mean motion: 12.42997024 rev/day Decay rate: 1.0e-07 rev/day^2 Epoch rev: 337 Checksum: 290
/EX